When you browse on this site, cookies collect data to enhance your experience and personalize the content and advertising you see.
Visit our Privacy Policy to learn more. By continuing to use the site, you agree to this use of cookies and data.
  • în România
  • Lista ţărilor
  • Pe 7 zile
  • Temperatura apei
  • Hartă satelitară
  • Meteo pe hartă
  • Widget-uri
  • user-avatar
    Intrare

    Meteo pe oră la Kumskoy

    Astăzi, 17 Noiembrie, Sâmbătă

    Timp Temperatura Precipitaţii Vânt Presiune Umiditate
    00:00 +3°C° 0.1 mm 5 m/s 739 mmHg 89%
    01:00 +4°C° 0 mm 4 m/s 739 mmHg 89%
    02:00 +4°C° 0 mm 4 m/s 739 mmHg 89%
    03:00 +4°C° 0 mm 2 m/s 739 mmHg 86%
    04:00 +3°C° 0.1 mm 3 m/s 739 mmHg 87%
    05:00 +2°C° 0.1 mm 3 m/s 739 mmHg 88%
    06:00 +1°C° 0.1 mm 4 m/s 739 mmHg 89%
    07:00 +2°C° 0.6 mm 3 m/s 740 mmHg 89%
    08:00 +3°C° 0.6 mm 3 m/s 740 mmHg 90%
    09:00 +3°C° 0.6 mm 3 m/s 740 mmHg 91%
    10:00 +4°C° 1.3 mm 2 m/s 740 mmHg 92%
    11:00 +4°C° 1.3 mm 2 m/s 740 mmHg 93%
    12:00 +4°C° 1.3 mm 2 m/s 741 mmHg 95%
    13:00 +4°C° 0.2 mm 2 m/s 741 mmHg 94%
    14:00 +5°C° 0.2 mm 1 m/s 741 mmHg 94%
    15:00 +6°C° 0.2 mm 1 m/s 741 mmHg 94%
    16:00 +5°C° 0 mm 1 m/s 741 mmHg 94%
    17:00 +5°C° 0 mm 1 m/s 742 mmHg 95%
    18:00 +5°C° 0 mm 1 m/s 742 mmHg 95%
    19:00 +5°C° 0.1 mm 1 m/s 742 mmHg 94%
    20:00 +5°C° 0.1 mm 1 m/s 742 mmHg 94%
    21:00 +5°C° 0.1 mm 1 m/s 742 mmHg 93%
    22:00 +5°C° 0.2 mm 1 m/s 741 mmHg 93%
    23:00 +5°C° 0.2 mm 1 m/s 741 mmHg 93%

    Mâine, 18 Noiembrie, Duminică

    Timp Temperatura Precipitaţii Vânt Presiune Umiditate
    00:00 +5°C° 0.2 mm 1 m/s 741 mmHg 93%
    01:00 +5°C° 0.1 mm 1 m/s 741 mmHg 92%
    02:00 +5°C° 0.1 mm 1 m/s 741 mmHg 92%
    03:00 +4°C° 0.1 mm 0 m/s 741 mmHg 92%
    04:00 +4°C° 0.2 mm 0 m/s 741 mmHg 91%
    05:00 +4°C° 0.2 mm 0 m/s 741 mmHg 91%
    06:00 +4°C° 0.2 mm 0 m/s 741 mmHg 90%
    07:00 +4°C° 0 mm 0 m/s 740 mmHg 89%
    08:00 +4°C° 0 mm 0 m/s 740 mmHg 87%
    09:00 +5°C° 0 mm 0 m/s 740 mmHg 86%
    10:00 +6°C° 0 mm 0 m/s 740 mmHg 81%
    11:00 +8°C° 0 mm 1 m/s 740 mmHg 77%
    12:00 +9°C° 0 mm 1 m/s 739 mmHg 73%
    13:00 +10°C° 0 mm 1 m/s 739 mmHg 73%
    14:00 +10°C° 0 mm 1 m/s 739 mmHg 73%
    15:00 +9°C° 0 mm 2 m/s 739 mmHg 73%
    16:00 +8°C° 0 mm 2 m/s 739 mmHg 78%
    17:00 +7°C° 0 mm 2 m/s 739 mmHg 83%
    18:00 +6°C° 0 mm 2 m/s 740 mmHg 88%
    19:00 +5°C° 0 mm 2 m/s 740 mmHg 89%
    20:00 +5°C° 0 mm 2 m/s 739 mmHg 90%
    21:00 +6°C° 0 mm 1 m/s 739 mmHg 91%
    22:00 +6°C° 0 mm 1 m/s 740 mmHg 91%
    23:00 +5°C° 0 mm 1 m/s 740 mmHg 91%

    Poimâine, 19 Noiembrie, Luni

    Timp Temperatura Precipitaţii Vânt Presiune Umiditate
    00:00 +5°C° 0 mm 1 m/s 740 mmHg 91%
    01:00 +5°C° 0 mm 1 m/s 740 mmHg 90%
    02:00 +5°C° 0 mm 1 m/s 740 mmHg 90%
    03:00 +5°C° 0 mm 1 m/s 740 mmHg 90%
    04:00 +4°C° 0 mm 2 m/s 740 mmHg 90%
    05:00 +4°C° 0 mm 2 m/s 740 mmHg 90%
    06:00 +4°C° 0 mm 2 m/s 740 mmHg 90%
    07:00 +3°C° 0 mm 3 m/s 740 mmHg 89%
    08:00 +4°C° 0 mm 3 m/s 740 mmHg 88%
    09:00 +4°C° 0 mm 3 m/s 740 mmHg 87%
    10:00 +5°C° 0 mm 4 m/s 740 mmHg 84%
    11:00 +5°C° 0 mm 4 m/s 739 mmHg 81%
    12:00 +6°C° 0 mm 4 m/s 739 mmHg 78%
    13:00 +6°C° 0 mm 5 m/s 739 mmHg 78%
    14:00 +7°C° 0 mm 5 m/s 739 mmHg 77%
    15:00 +7°C° 0 mm 5 m/s 738 mmHg 77%
    16:00 +6°C° 0 mm 5 m/s 739 mmHg 79%
    17:00 +5°C° 0 mm 5 m/s 739 mmHg 82%
    18:00 +5°C° 0 mm 5 m/s 739 mmHg 84%
    19:00 +5°C° 0 mm 5 m/s 739 mmHg 84%
    20:00 +3°C° 0 mm 5 m/s 739 mmHg 84%
    21:00 +3°C° 0 mm 5 m/s 739 mmHg 84%
    22:00 +3°C° 0 mm 5 m/s 739 mmHg 84%
    23:00 +3°C° 0 mm 5 m/s 739 mmHg 85%

    20 Noiembrie, Marţi

    Timp Temperatura Precipitaţii Vânt Presiune Umiditate
    00:00 +3°C° 0 mm 5 m/s 739 mmHg 85%
    01:00 +4°C° 0 mm 4 m/s 739 mmHg 85%
    02:00 +4°C° 0 mm 4 m/s 739 mmHg 85%
    03:00 +4°C° 0 mm 3 m/s 739 mmHg 86%
    04:00 +4°C° 0.1 mm 3 m/s 739 mmHg 86%
    05:00 +4°C° 0.1 mm 3 m/s 739 mmHg 87%
    06:00 +5°C° 0.1 mm 2 m/s 739 mmHg 88%
    07:00 +5°C° 0.1 mm 2 m/s 739 mmHg 87%
    08:00 +6°C° 0.1 mm 2 m/s 739 mmHg 86%
    09:00 +6°C° 0.1 mm 2 m/s 740 mmHg 85%
    10:00 +7°C° 0.2 mm 2 m/s 739 mmHg 83%
    11:00 +7°C° 0.2 mm 2 m/s 739 mmHg 82%
    12:00 +8°C° 0.2 mm 2 m/s 739 mmHg 80%
    13:00 +9°C° 0 mm 2 m/s 739 mmHg 77%
    14:00 +9°C° 0 mm 2 m/s 738 mmHg 75%
    15:00 +10°C° 0 mm 2 m/s 738 mmHg 73%
    16:00 +9°C° 0 mm 2 m/s 738 mmHg 75%
    17:00 +9°C° 0 mm 2 m/s 738 mmHg 77%
    18:00 +8°C° 0 mm 2 m/s 739 mmHg 80%
    19:00 +9°C° 0 mm 1 m/s 738 mmHg 78%
    20:00 +9°C° 0 mm 1 m/s 738 mmHg 77%
    21:00 +9°C° 0 mm 1 m/s 738 mmHg 75%
    22:00 +9°C° 0 mm 1 m/s 738 mmHg 75%
    23:00 +9°C° 0 mm 1 m/s 738 mmHg 74%

    21 Noiembrie, Miercuri

    Timp Temperatura Precipitaţii Vânt Presiune Umiditate
    00:00 +9°C° 0 mm 1 m/s 738 mmHg 74%
    01:00 +9°C° 0 mm 1 m/s 737 mmHg 75%
    02:00 +9°C° 0 mm 1 m/s 737 mmHg 76%
    03:00 +9°C° 0 mm 1 m/s 737 mmHg 77%
    04:00 +9°C° 0 mm 1 m/s 737 mmHg 78%
    05:00 +9°C° 0 mm 1 m/s 737 mmHg 79%
    06:00 +9°C° 0 mm 1 m/s 736 mmHg 80%
    07:00 +8°C° 0.2 mm 0 m/s 736 mmHg 79%
    08:00 +8°C° 0.2 mm 0 m/s 736 mmHg 79%
    09:00 +9°C° 0.2 mm 0 m/s 736 mmHg 79%
    10:00 +10°C° 0.1 mm 0 m/s 735 mmHg 76%
    11:00 +10°C° 0.1 mm 0 m/s 735 mmHg 74%
    12:00 +11°C° 0.1 mm 0 m/s 734 mmHg 71%
    13:00 +11°C° 0.1 mm 0 m/s 734 mmHg 72%
    14:00 +12°C° 0.1 mm 1 m/s 734 mmHg 74%
    15:00 +12°C° 0.1 mm 1 m/s 734 mmHg 75%
    16:00 +12°C° 0.1 mm 1 m/s 734 mmHg 80%
    17:00 +10°C° 0.1 mm 0 m/s 734 mmHg 85%
    18:00 +9°C° 0.1 mm 0 m/s 734 mmHg 90%
    19:00 +9°C° 0.1 mm 0 m/s 734 mmHg 91%
    20:00 +8°C° 0.1 mm 0 m/s 734 mmHg 92%
    21:00 +8°C° 0.1 mm 0 m/s 733 mmHg 93%
    22:00 +9°C° 0.3 mm 1 m/s 733 mmHg 93%
    23:00 +9°C° 0.3 mm 1 m/s 733 mmHg 93%

    22 Noiembrie, Joi

    Timp Temperatura Precipitaţii Vânt Presiune Umiditate
    00:00 +9°C° 0.3 mm 1 m/s 733 mmHg 93%
    01:00 +8°C° 0.7 mm 1 m/s 733 mmHg 93%
    02:00 +7°C° 0.7 mm 2 m/s 733 mmHg 93%
    03:00 +6°C° 0.7 mm 2 m/s 733 mmHg 93%
    04:00 +6°C° 1.3 mm 2 m/s 733 mmHg 92%
    05:00 +5°C° 1.3 mm 2 m/s 733 mmHg 92%
    06:00 +5°C° 1.3 mm 2 m/s 733 mmHg 91%
    07:00 +4°C° 1.4 mm 2 m/s 733 mmHg 92%
    08:00 +4°C° 1.4 mm 2 m/s 733 mmHg 92%
    09:00 +4°C° 1.4 mm 2 m/s 734 mmHg 92%
    10:00 +3°C° 1.3 mm 2 m/s 734 mmHg 93%
    11:00 +3°C° 1.3 mm 2 m/s 733 mmHg 94%
    12:00 +3°C° 1.3 mm 2 m/s 733 mmHg 95%
    13:00 +3°C° 0.9 mm 2 m/s 733 mmHg 96%
    14:00 +4°C° 0.9 mm 1 m/s 733 mmHg 96%
    15:00 +3°C° 0.9 mm 1 m/s 733 mmHg 96%
    16:00 +3°C° 0.9 mm 1 m/s 733 mmHg 96%
    17:00 +3°C° 0.9 mm 1 m/s 734 mmHg 96%
    18:00 +3°C° 0.9 mm 1 m/s 734 mmHg 96%
    19:00 +3°C° 0.6 mm 1 m/s 734 mmHg 96%
    20:00 +3°C° 0.6 mm 1 m/s 734 mmHg 95%
    21:00 +1°C° 0.6 mm 2 m/s 735 mmHg 95%
    22:00 +1°C° 0.5 mm 2 m/s 735 mmHg 95%
    23:00 +1°C° 0.5 mm 2 m/s 735 mmHg 95%
    Arată mai mult